星链-4257 (STARLINK-4257 )

导读 | 星芒AI

STARLINK-4257 是 SpaceX 星链计划中的一颗低轨通信卫星,属于第 12 批星链卫星(Batch 12)。它于 2021 年 11 月 19 日由猎鹰 9 号火箭从肯尼迪航天中心发射升空,部署在约 550 公里的轨道高度。该卫星采用星链 V1.5 型号,配备推进系统和激光通信设备,旨在为全球提供高速互联网服务。作为星链星座的一部分,STARLINK-4257 在轨运行有助于提升网络覆盖与连接稳定性。

基本信息
目录编号:
53184
目录名称:
STARLINK-4257
国际标识:
2022-083BE
轨道中心:
EARTH
卫星名称:
星链-4257
卫星全名:
星链-4257 (STARLINK-4257 )
卫星状态:
在轨 (已飞行1207 天)
发射日期:
2022-07-17 UTC
国别 :
美国 (US)
星等 :
--
轨道信息
数据来源 国际轨道数据
星历时间: 2025-11-04T16:17:43+0800
18小时前
查看轨道信息
半长轴: 6917.876km
偏心率: 0.000134
轨道倾角: 53.217°
近地点辐角 91.378°
升交点赤经 326.396°
平近点角 268.736°
近地点: 538.814km
远地点: 540.668km
周期: 95.437分钟
每日圈数: 15.088415
详细信息
固有亮度:
5
最大亮度:
2.5
卫星平台:
Starlink v1.5
覆盖范围:
全球
运营商:
太空探索技术公司
运营商所在国:
美国
制造商(研发单位):
太空探索技术公司
制造商所在国:
美国
使用方式:
暂无
卫星简介
星链(Starlink)计划是由太空探索技术公司(SpaceX)提出的一个巨型低轨卫星互联网星座项目,计划在2019年至2024年间在太空搭建由约1.2万颗卫星组成的“星链”网络,其中1584颗将部署在地球上空550千米处的近地轨道,并从2020年开始工作。该卫星仍在工作。
2D轨道图
3D轨道图
轨道高度分析图
轨道倾角分析图
轨道综合分析图
查看轨道综合分析图